K5BOU Weather Reports


Display with metric or nautical units.
time (UTC)temp
F
wind
direction
speed
MPH
gust
MPH
rain 1hr
in
rain 24hr
in
rain mn
in
humidity
%
barometer
mb
20260507083840 67 178 0.0 2.0 0.00 0.00 0.00 92 1010.7
20260507083336 67 169 1.0 2.0 0.00 0.00 0.00 92 1011.1
20260507082832 67 265 2.0 8.0 0.00 0.00 0.00 92 1011.0
20260507082328 67 3 2.0 2.0 0.00 0.00 0.00 92 1010.9
20260507081825 67 89 3.0 5.0 0.00 0.00 0.00 92 1010.8
20260507081321 67 209 0.0 2.0 0.00 0.00 0.00 92 1010.6
20260507080818 67 86 0.0 1.0 0.00 0.00 0.00 92 1010.8
20260507080314 67 126 0.0 2.0 0.00 0.00 0.00 92 1010.7
20260507075810 67 210 1.0 5.0 0.00 0.00 0.00 92 1011.0
20260507075307 67 162 0.0 2.0 0.00 0.00 0.00 92 1010.8
20260507074803 67 162 0.0 0.0 0.00 0.00 0.00 92 1011.0
20260507074301 67 88 1.0 2.0 0.00 0.00 0.00 91 1011.2
20260507073757 67 138 0.0 2.0 0.00 0.00 0.00 91 1011.2
20260507073254 67 138 0.0 7.0 0.00 0.00 0.00 91 1011.2
20260507072751 67 91 1.0 7.0 0.00 0.00 0.00 91 1011.2
20260507072249 68 112 2.0 8.0 0.00 0.00 0.00 91 1011.3
20260507071746 68 48 2.0 6.0 0.00 0.00 0.00 91 1011.0
20260507071242 68 95 0.0 6.0 0.00 0.00 0.00 91 1011.1
20260507070739 68 144 1.0 6.0 0.00 0.00 0.00 91 1011.1
20260507070236 68 247 3.0 5.0 0.00 0.00 0.00 92 1011.5
20260507065733 68 25 0.0 2.0 0.00 0.00 0.00 91 1011.2
20260507065230 68 173 1.0 5.0 0.00 0.00 0.00 91 1011.0
20260507064727 68 155 1.0 3.0 0.00 0.00 0.00 91 1011.1
20260507064226 68 185 3.0 6.0 0.00 0.00 0.00 91 1011.5
20260507063723 68 171 2.0 5.0 0.00 0.00 0.00 91 1011.0
20260507063219 68 299 4.0 5.0 0.00 0.00 0.00 91 1011.0
20260507062716 69 149 0.0 2.0 0.00 0.00 0.00 91 1011.0
20260507062214 69 151 0.0 1.0 0.00 0.00 0.00 91 1011.5
20260507061712 69 151 0.0 1.0 0.00 0.00 0.00 91 1011.3
20260507061209 69 151 0.0 1.0 0.00 0.00 0.00 91 1010.9
20260507060707 69 151 0.0 1.0 0.00 0.00 0.00 91 1010.9
20260507060203 69 151 0.0 1.0 0.00 0.00 0.00 91 1010.7
20260507055659 69 151 0.0 1.0 0.00 0.00 0.00 91 1010.8
20260507055155 69 151 0.0 5.0 0.00 0.00 0.00 91 1011.0
20260507054651 69 123 1.0 2.0 0.00 0.00 0.00 91 1010.9
20260507054148 69 176 1.0 3.0 0.00 0.00 0.00 91 1011.2
20260507053646 69 196 0.0 7.0 0.00 0.00 0.00 91 1011.0
20260507053144 69 113 0.0 5.0 0.00 0.00 0.00 91 1010.7
20260507052643 69 171 2.0 7.0 0.00 0.00 0.00 91 1010.5
20260507052138 70 179 1.0 6.0 0.00 0.00 0.00 91 1010.4
20260507051636 70 53 3.0 5.0 0.00 0.00 0.00 91 1010.6
20260507051132 70 303 3.0 5.0 0.00 0.00 0.00 91 1010.5
20260507050630 70 118 2.0 5.0 0.00 0.00 0.00 90 1010.7
20260507050126 70 164 0.0 2.0 0.00 0.00 0.00 90 1010.7
20260507045623 70 141 0.0 5.0 0.00 0.00 0.00 90 1010.6
20260507045120 70 170 0.0 6.0 0.00 0.00 0.00 90 1010.8
20260507044617 70 256 3.0 6.0 0.00 0.00 0.00 90 1010.7
20260507044114 70 35 1.0 3.0 0.00 0.00 0.00 90 1010.5
20260507043609 71 214 4.0 5.0 0.00 0.00 0.00 89 1010.6
20260507043107 71 195 2.0 3.0 0.00 0.00 0.00 89 1010.6
20260507042602 71 312 6.0 7.0 0.00 0.00 0.00 89 1010.7
20260507042058 71 277 1.0 3.0 0.00 0.00 0.00 89 1010.8
20260507041555 71 144 0.0 2.0 0.00 0.00 0.00 89 1010.7
20260507041052 71 198 1.0 3.0 0.00 0.00 0.00 89 1010.7
20260507040549 71 73 2.0 7.0 0.00 0.00 0.00 89 1010.4
20260507040045 72 316 8.0 9.0 0.00 0.00 0.00 89 1010.6
20260507035541 72 118 1.0 3.0 0.00 0.00 0.00 89 1010.7
20260507035038 72 209 2.0 7.0 0.00 0.00 0.00 89 1010.8
20260507034534 72 37 2.0 8.0 0.00 0.00 0.00 89 1010.7
20260507034032 72 10 5.0 8.0 0.00 0.00 0.00 88 1010.5
20260507033530 72 103 2.0 9.0 0.00 0.00 0.00 89 1010.5
20260507033027 73 34 1.0 5.0 0.00 0.00 0.00 89 1010.4
20260507032524 73 336 3.0 9.0 0.00 0.00 0.00 89 1010.3
20260507032020 73 337 1.0 7.0 0.00 0.00 0.00 89 1010.1
20260507031516 73 309 4.0 8.0 0.00 0.00 0.00 89 1010.1
20260507031014 73 325 3.0 3.0 0.00 0.00 0.00 89 1010.0
20260507030511 73 244 1.0 6.0 0.00 0.00 0.00 89 1009.7
20260507030008 73 296 5.0 9.0 0.00 0.00 0.00 89 1009.6
20260507025505 73 354 6.0 8.0 0.00 0.00 0.00 88 1009.7
20260507025003 73 310 7.0 9.0 0.00 0.00 0.00 88 1009.6
20260507024500 73 332 3.0 7.0 0.00 0.00 0.00 88 1009.5
20260507023956 73 78 5.0 7.0 0.00 0.00 0.00 88 1009.5
20260507023453 73 160 1.0 7.0 0.00 0.00 0.00 88 1009.4
20260507022950 74 260 6.0 13.0 0.00 0.00 0.00 88 1008.9
20260507022447 74 196 2.0 8.0 0.00 0.00 0.00 89 1009.0
20260507021942 74 300 2.0 7.0 0.00 0.00 0.00 89 1008.7
20260507021438 74 315 1.0 7.0 0.00 0.00 0.00 89 1008.6
20260507020936 75 203 4.0 6.0 0.00 0.00 0.00 89 1008.4
20260507020432 75 20 1.0 6.0 0.00 0.00 0.00 89 1008.4
20260507015929 75 317 3.0 3.0 0.00 0.00 0.00 89 1008.3
20260507015428 75 298 2.0 5.0 0.00 0.00 0.00 90 1008.3
20260507014924 76 14 3.0 3.0 0.00 0.00 0.00 90 1008.2
20260507014421 76 78 1.0 1.0 0.00 0.00 0.00 90 1008.0
20260507013917 76 83 3.0 5.0 0.00 0.00 0.00 90 1008.3
20260507013414 76 165 3.0 9.0 0.00 0.00 0.00 90 1008.3
20260507012912 76 255 2.0 3.0 0.00 0.00 0.00 90 1008.0
20260507012408 76 229 1.0 5.0 0.00 0.00 0.00 90 1007.9
20260507011905 76 173 4.0 6.0 0.00 0.00 0.00 90 1007.8
20260507011402 77 255 3.0 6.0 0.00 0.00 0.00 91 1007.7
20260507010901 77 261 4.0 6.0 0.00 0.00 0.00 90 1007.8
20260507010357 77 327 1.0 3.0 0.00 0.00 0.00 90 1007.6
20260507005854 77 215 1.0 5.0 0.00 0.00 0.00 90 1007.6
20260507005351 77 333 3.0 3.0 0.00 0.00 0.00 90 1007.4
20260507004842 77 346 5.0 9.0 0.00 0.00 0.00 90 1007.3
20260507004339 78 252 3.0 5.0 0.00 0.00 0.00 90 1007.0
20260507003836 82 305 5.0 7.0 0.00 0.00 0.00 93 1007.0
20260507003332 82 198 1.0 2.0 0.00 0.00 0.00 94 1006.6
20260507002827 82 169 1.0 2.0 0.00 0.00 0.00 94 1006.6
20260507002323 82 189 0.0 0.0 0.00 0.00 0.00 94 1006.5
20260507001821 83 196 2.0 2.0 0.00 0.00 0.00 94 1006.6
20260507001318 83 153 1.0 3.0 0.00 0.00 0.00 93 1006.5
20260507000814 83 170 1.0 3.0 0.00 0.00 0.00 93 1006.4
20260507000310 83 163 3.0 6.0 0.00 0.00 0.00 93 1006.7
20260506235807 83 195 2.0 5.0 0.00 0.00 0.00 93 1006.1
20260506235306 83 158 2.0 5.0 0.00 0.00 0.00 92 1006.4
20260506234759 83 196 4.0 6.0 0.00 0.00 0.00 92 1006.5
20260506234257 83 179 2.0 5.0 0.00 0.00 0.00 92 1006.4
20260506233754 0 0.0 0.0 0.00 0.00 0.00 1006.3
20260506233250 0 0.0 0.0 0.00 0.00 0.00 1006.3
20260506232747 0 0.0 0.0 0.00 0.00 0.00 1006.3
20260506232242 0 0.0 0.0 0.00 0.00 0.00 1006.3
20260506231739 0 0.0 0.0 0.00 0.00 0.00 1006.2
20260506231238 0 0.0 0.0 0.00 0.00 0.00 1006.2
20260506230734 0 0.0 0.0 0.00 0.00 0.00 1006.0
20260506230231 0 0.0 0.0 0.00 0.00 0.00 1005.8
20260506225728 0 0.0 0.0 0.00 0.00 0.00 1005.9
20260506225225 0 0.0 0.0 0.00 0.00 0.00 1006.0
20260506224721 0 0.0 0.0 0.00 0.00 0.00 1005.9
20260506224218 0 0.0 0.0 0.00 0.00 0.00 1006.0
20260506223714 0 0.0 0.0 0.00 0.00 0.00 1006.1
20260506223210 0 0.0 0.0 0.00 0.00 0.00 1005.9
20260506222708 0 0.0 0.0 0.00 0.00 0.00 1005.9
20260506222203 0 0.0 0.0 0.00 0.00 0.00 1005.9
20260506221701 0 0.0 0.0 0.00 0.00 0.00 1005.8
20260506221159 0 0.0 0.0 0.00 0.00 0.00 1006.0
20260506220655 0 0.0 0.0 0.00 0.00 0.00 1005.8
20260506220150 0 0.0 0.0 0.00 0.00 0.00 1005.7
20260506215648 0 0.0 0.0 0.00 0.00 0.00 1005.6
20260506215143 0 0.0 0.0 0.00 0.00 0.00 1005.8
20260506214640 0 0.0 0.0 0.00 0.00 0.00 1005.7
20260506214137 0 0.0 0.0 0.00 0.00 0.00 1005.7
20260506213636 0 0.0 0.0 0.00 0.00 0.00 1005.7
20260506213132 0 0.0 0.0 0.00 0.00 0.00 1006.0
20260506212630 0 0.0 0.0 0.00 0.00 0.00 1006.0
20260506212124 0 0.0 0.0 0.00 0.00 0.00 1005.8
20260506211620 0 0.0 0.0 0.00 0.00 0.00 1006.0
20260506211117 0 0.0 0.0 0.00 0.00 0.00 1005.9
20260506210614 0 0.0 0.0 0.00 0.00 0.00 1006.3
20260506210110 0 0.0 0.0 0.00 0.00 0.00 1006.0
20260506205608 0 0.0 0.0 0.00 0.00 0.00 1006.3
20260506205102 0 0.0 0.0 0.00 0.00 0.00 1006.1
20260506204601 0 0.0 0.0 0.00 0.00 0.00 1006.3
20260506204057 0 0.0 0.0 0.00 0.00 0.00 1006.3
20260506203556 0 0.0 0.0 0.00 0.00 0.00 1006.4
20260506203052 0 0.0 0.0 0.00 0.00 0.00 1006.4
20260506202550 0 0.0 0.0 0.00 0.00 0.00 1006.4
20260506202046 0 0.0 0.0 0.00 0.00 0.00 1006.5
20260506201544 86 171 0.0 0.0 0.00 0.00 0.00 85 1006.3
20260506201040 86 171 0.0 0.0 0.00 0.00 0.00 85 1006.4
20260506200536 86 171 0.0 0.0 0.00 0.00 0.00 85 1006.4
20260506200033 86 171 0.0 0.0 0.00 0.00 0.00 85 1006.5
20260506195530 86 171 0.0 0.0 0.00 0.00 0.00 85 1006.6
20260506195026 86 171 0.0 0.0 0.00 0.00 0.00 85 1006.5
20260506194524 86 171 0.0 0.0 0.00 0.00 0.00 85 1006.8
20260506194020 86 171 0.0 0.0 0.00 0.00 0.00 85 1006.7
20260506193517 86 171 0.0 0.0 0.00 0.00 0.00 85 1006.8
20260506193015 86 171 0.0 0.0 0.00 0.00 0.00 85 1006.7
20260506192511 86 171 0.0 0.0 0.00 0.00 0.00 85 1006.8
20260506192007 86 171 0.0 0.0 0.00 0.00 0.00 85 1006.6
20260506191504 86 165 1.0 6.0 0.00 0.00 0.00 85 1007.1
20260506191001 86 192 3.0 6.0 0.00 0.00 0.00 85 1007.0
20260506190458 85 180 1.0 2.0 0.00 0.00 0.00 87 1007.2
20260506185954 85 192 2.0 7.0 0.00 0.00 0.00 87 1007.1
20260506185452 85 93 4.0 5.0 0.00 0.00 0.00 86 1007.2
20260506184948 85 196 0.0 9.0 0.00 0.00 0.00 86 1007.2
20260506184445 85 146 4.0 6.0 0.00 0.00 0.00 87 1007.3
20260506183942 85 159 3.0 8.0 0.00 0.00 0.00 87 1007.3
20260506183438 85 174 4.0 8.0 0.00 0.00 0.00 87 1007.3
20260506182935 85 149 1.0 2.0 0.00 0.00 0.00 87 1007.5
20260506182432 85 193 3.0 5.0 0.00 0.00 0.00 87 1007.5
20260506181930 84 166 2.0 5.0 0.00 0.00 0.00 89 1007.6
20260506181428 83 152 4.0 6.0 0.00 0.00 0.00 90 1007.9
20260506180924 82 143 2.0 3.0 0.00 0.00 0.00 91 1007.8
20260506180420 82 171 3.0 3.0 0.00 0.00 0.00 92 1007.8
20260506175917 82 148 1.0 6.0 0.00 0.00 0.00 92 1008.1
20260506175414 82 198 1.0 2.0 0.00 0.00 0.00 92 1008.1
20260506174911 82 174 0.0 1.0 0.00 0.00 0.00 92 1008.2
20260506174409 82 174 0.0 1.0 0.00 0.00 0.00 92 1008.3
20260506173906 82 167 0.0 1.0 0.00 0.00 0.00 91 1008.5
20260506173402 82 161 0.0 2.0 0.00 0.00 0.00 92 1008.3
20260506172859 82 170 0.0 3.0 0.00 0.00 0.00 92 1008.4
20260506172356 83 196 2.0 5.0 0.00 0.00 0.00 91 1008.4
20260506171853 83 196 0.0 3.0 0.00 0.00 0.00 92 1008.6
20260506171350 83 188 0.0 1.0 0.00 0.00 0.00 92 1008.6
20260506170848 83 201 1.0 5.0 0.00 0.00 0.00 91 1008.5
20260506170344 83 188 0.0 1.0 0.00 0.00 0.00 92 1008.3
20260506165843 82 134 4.0 5.0 0.00 0.00 0.00 92 1008.6
20260506165341 82 162 0.0 3.0 0.00 0.00 0.00 93 1008.4
20260506164837 82 200 2.0 5.0 0.00 0.00 0.00 93 1008.5
20260506164333 81 176 1.0 6.0 0.00 0.00 0.00 94 1008.4
20260506163825 81 152 2.0 2.0 0.00 0.00 0.00 95 1008.8
20260506163320 80 170 1.0 2.0 0.00 0.00 0.00 96 1008.3
20260506162816 80 164 1.0 1.0 0.00 0.00 0.00 97 1008.4
20260506162314 79 189 2.0 3.0 0.00 0.00 0.00 98 1008.4
20260506161811 79 196 0.0 3.0 0.00 0.00 0.00 98 1008.5
20260506161308 79 183 1.0 3.0 0.00 0.00 0.00 98 1008.5
20260506160806 79 140 2.0 3.0 0.00 0.00 0.00 98 1008.3
20260506160302 79 126 3.0 5.0 0.00 0.00 0.00 98 1008.2
20260506155801 79 153 0.0 2.0 0.00 0.00 0.00 98 1008.1
20260506155257 79 174 4.0 5.0 0.00 0.00 0.00 97 1008.2
20260506153410 79 194 4.0 8.0 0.00 0.00 0.00 97 1008.3
20260506152907 79 169 2.0 3.0 0.00 0.00 0.00 97 1008.1
20260506152404 79 174 0.0 5.0 0.00 0.00 0.00 97 1008.0
20260506151903 79 166 1.0 3.0 0.00 0.00 0.00 96 1007.8
20260506151359 79 162 3.0 6.0 0.00 0.00 0.00 96 1007.8
20260506150857 79 173 2.0 5.0 0.00 0.00 0.00 96 1007.7
20260506150353 79 180 2.0 3.0 0.00 0.00 0.00 96 1007.7
20260506145850 79 187 1.0 3.0 0.00 0.00 0.00 96 1007.7
20260506145346 79 170 3.0 6.0 0.00 0.00 0.00 96 1007.5
20260506144844 79 174 2.0 3.0 0.00 0.00 0.00 96 1007.4
20260506144340 79 187 1.0 5.0 0.00 0.00 0.00 96 1007.2
20260506143839 79 180 0.0 2.0 0.00 0.00 0.00 97 1007.3
20260506143335 79 79 3.0 5.0 0.00 0.00 0.00 98 1006.9
20260506142833 79 173 2.0 6.0 0.00 0.00 0.00 99 1007.0
20260506142331 78 176 1.0 5.0 0.00 0.00 0.00 99 1007.1
20260506141829 78 183 1.0 7.0 0.00 0.00 0.00 99 1007.1
20260506141327 78 141 1.0 2.0 0.00 0.00 0.00 99 1007.2
20260506140825 77 192 0.0 3.0 0.00 0.00 0.00 99 1007.2
20260506140321 77 164 1.0 6.0 0.00 0.00 0.00 99 1007.2
20260506135819 77 148 2.0 5.0 0.00 0.00 0.00 99 1007.4
20260506135315 77 174 1.0 3.0 0.00 0.00 0.00 99 1007.2
20260506134811 77 152 3.0 3.0 0.00 0.00 0.00 99 1007.5
20260506134308 76 150 1.0 1.0 0.00 0.00 0.00 99 1007.3
20260506133805 76 186 3.0 6.0 0.00 0.00 0.00 99 1007.3
20260506133302 76 170 0.0 0.0 0.00 0.00 0.00 99 1007.3
20260506132758 76 181 0.0 0.0 0.00 0.00 0.00 99 1007.5
20260506132255 76 181 0.0 0.0 0.00 0.00 0.00 99 1007.6
20260506131753 76 181 0.0 0.0 0.00 0.00 0.00 99 1007.6
20260506131249 76 170 1.0 2.0 0.00 0.00 0.00 99 1007.5
20260506130746 75 170 0.0 1.0 0.00 0.00 0.00 99 1007.6
20260506130243 75 175 0.0 1.0 0.00 0.00 0.00 99 1007.5
20260506125741 75 179 0.0 1.0 0.00 0.00 0.00 99 1007.5
20260506125239 75 181 0.0 0.0 0.00 0.00 0.00 99 1007.3
20260506124737 75 174 1.0 2.0 0.00 0.00 0.00 99 1007.5
20260506124234 75 167 0.0 0.0 0.00 0.00 0.00 99 1007.4
20260506123732 75 123 2.0 3.0 0.00 0.00 0.00 99 1007.5
20260506123230 75 178 0.0 1.0 0.00 0.00 0.00 99 1007.4
20260506122726 75 177 0.0 0.0 0.00 0.00 0.00 99 1007.4
20260506122224 75 167 0.0 0.0 0.00 0.00 0.00 99 1007.4
20260506121722 75 150 0.0 0.0 0.00 0.00 0.00 99 1007.4
20260506121218 75 174 0.0 1.0 0.00 0.00 0.00 99 1007.4
20260506120716 75 179 0.0 1.0 0.00 0.00 0.00 99 1007.2
20260506120214 75 154 0.0 0.0 0.00 0.00 0.00 99 1007.4
20260506115712 75 171 0.0 0.0 0.00 0.00 0.00 99 1007.2
20260506115209 75 169 0.0 1.0 0.00 0.00 0.00 99 1007.0
20260506114706 75 164 1.0 2.0 0.00 0.00 0.00 99 1007.0
20260506114204 75 177 3.0 3.0 0.00 0.00 0.00 99 1006.7
20260506113703 75 160 0.0 3.0 0.00 0.00 0.00 99 1006.9
20260506113200 75 161 0.0 0.0 0.00 0.00 0.00 99 1006.8
20260506112656 75 182 0.0 1.0 0.00 0.00 0.00 99 1006.8
20260506112154 75 168 1.0 1.0 0.00 0.00 0.00 99 1007.0
20260506111651 75 172 0.0 1.0 0.00 0.00 0.00 99 1006.5
20260506111149 75 171 2.0 2.0 0.00 0.00 0.00 99 1006.6
20260506110646 75 150 0.0 1.0 0.00 0.00 0.00 99 1006.6
20260506110143 75 181 2.0 2.0 0.00 0.00 0.00 99 1006.6
20260506105640 75 159 2.0 2.0 0.00 0.00 0.00 99 1006.7
20260506105137 75 162 1.0 3.0 0.00 0.00 0.00 99 1006.5
20260506104634 75 139 1.0 3.0 0.00 0.00 0.00 99 1006.4
20260506104132 75 145 1.0 2.0 0.00 0.00 0.00 99 1006.5
20260506103629 75 150 2.0 3.0 0.00 0.00 0.00 99 1006.3
20260506103126 75 183 1.0 3.0 0.00 0.00 0.00 99 1006.5
20260506102624 75 173 0.0 5.0 0.00 0.00 0.00 99 1006.5
20260506102121 75 169 1.0 3.0 0.00 0.00 0.00 99 1006.5
20260506101618 75 204 2.0 6.0 0.00 0.00 0.00 99 1006.3
20260506101114 75 140 2.0 3.0 0.00 0.00 0.00 99 1006.3
20260506100613 75 172 0.0 2.0 0.00 0.00 0.00 99 1006.4
20260506100111 75 173 0.0 2.0 0.00 0.00 0.00 99 1006.3
20260506095609 75 172 0.0 2.0 0.00 0.00 0.00 99 1006.3
20260506095105 75 179 1.0 2.0 0.00 0.00 0.00 99 1006.3
20260506094603 75 174 0.0 2.0 0.00 0.00 0.00 99 1006.2
20260506094101 75 154 1.0 2.0 0.00 0.00 0.00 99 1006.3
20260506093559 75 170 1.0 2.0 0.00 0.00 0.00 99 1006.3
20260506093056 75 182 0.0 1.0 0.00 0.00 0.00 99 1006.3
20260506092554 75 166 1.0 2.0 0.00 0.00 0.00 99 1006.2
20260506092050 75 171 0.0 1.0 0.00 0.00 0.00 99 1006.2
20260506091549 75 168 0.0 2.0 0.00 0.00 0.00 99 1006.3
20260506091046 75 178 0.0 2.0 0.00 0.00 0.00 99 1006.3
20260506090543 75 170 2.0 2.0 0.00 0.00 0.00 99 1006.4
20260506090039 75 161 0.0 0.0 0.00 0.00 0.00 99 1006.4
20260506085537 75 179 0.0 2.0 0.00 0.00 0.00 99 1006.5
20260506085033 76 172 0.0 1.0 0.00 0.00 0.00 99 1006.5
20260506084530 76 188 0.0 2.0 0.00 0.00 0.00 99 1006.4
20260506084026 76 153 0.0 3.0 0.00 0.00 0.00 99 1006.5